{"data":{"norad_id":55788,"intl_designator":"2023-028AZ","name":"STARLINK-5804","alt_names":[],"object_type":"PAYLOAD","status":"ACTIVE","operator":null,"country":"US","launch_date":"2023-03-03","launch_site_code":"AFWTR","launch_vehicle":null,"mission":null,"orbit_class":"UNKNOWN","rcs_meters":null,"size_class":null,"mass_kg":null,"dimensions":null,"purposes":["comms"],"wikipedia_slug":null,"has_3d_model":false,"image_url":null,"decayed_at":null,"tle_current":{"epoch":"2026-05-25T01:31:15.752064Z","epoch_age_seconds":65652,"freshness":"FRESH","line1":"1 55788U 23028AZ  26145.06337676  .00000319  00000+0  34501-4 0  9993","line2":"2 55788  69.9995  11.9973 0002602 270.9404  89.1457 14.98334703178460","mean_motion":14.98334703,"eccentricity":0.0002602,"inclination_deg":69.9995,"raan_deg":11.9973,"arg_perigee_deg":270.9404,"mean_anomaly_deg":89.1457,"bstar":3.4501e-5,"rev_number":17846,"period_min":96.10669746331,"perigee_km":570.23291093693,"apogee_km":573.84978374889,"semimajor_km":6950.1783473429,"source":"CELESTRAK","updated_at":"2026-05-25T13:38:17.887843Z"}}}